Location: Ellingshausen
(50.5460°N, 10.4723°E)
Time: 12:17:41
(UTC+00:00)

Cosmos 676 Rocket - Pass Details

Date: 16 April 2026
Orbit: 750 x 779 km, 74.0° (Epoch: 19 May)

Event Time Altitude Azimuth Distance (km) Brightness Sun altitude
Rises 23:57:05 0° 332° (NNW) 3,268 8.0 -28.8°
Reaches altitude 10° 23:59:32 10° 327° (NNW) 2,333 7.0 -28.7°
Enters shadow 00:03:16 40° 298° (WNW) 1,131 4.9 -28.6°
